Lapse_Rate
5.5 6.5 6.5 6.5 6.5 6.5 6.5 6.5 6.5 6.5 6.5 6.5 6.5 6.5 6.5 6.2 6.3 5.8 5.3 5.4 5.0 4.0 3.9 3.5 3.3 2.8 2.8 3.7 4.3 5.4 4.8 4.8 5.3 5.2 5.3 5.0 4.8 3.7 3.9 4.7 5.5 5.8 5.8 5.1
6.5 6.5 6.5 6.5 6.5 6.5 6.5 6.5 6.5 6.5 6.5 6.5 6.5 6.5 6.5 6.3 6.3 6.4 6.1 5.7 5.6 5.4 4.8 4.6 2.9 2.7 2.9 3.6 4.2 4.1 5.0 4.3 4.8 5.7 5.5 6.0 4.8 3.6 4.5 4.2 4.7 5.5 5.5 5.3
6.5 6.5 6.5 6.5 6.5 6.5 6.5 6.5 6.5 6.5 6.5 6.5 6.5 6.5 6.5 6.4 6.0 6.6 6.7 6.5 6.5 6.0 5.8 6.1 5.9 2.9 2.4 2.8 3.7 3.6 3.7 4.3 4.7 5.0 5.7 5.1 4.5 4.0 4.4 4.0 4.4 4.9 5.3 5.4
6.5 6.6 6.5 6.5 6.5 6.5 6.5 6.5 6.5 6.5 6.5 6.5 6.5 6.5 6.5 6.5 6.5 6.5 6.7 6.9 6.7 6.3 5.3 5.3 4.7 4.4 3.4 2.6 3.0 3.9 3.6 3.1 3.6 4.1 4.5 4.9 4.9 6.2 5.6 5.3 4.8 4.6 5.1 5.6
6.5 6.5 6.5 6.5 6.5 6.5 6.5 6.5 6.5 6.5 6.5 6.5 6.5 6.5 6.5 6.5 6.5 6.5 6.5 7.0 6.6 6.4 5.7 5.1 4.9 4.9 4.1 3.6 3.1 3.0 3.0 3.0 3.5 3.8 3.8 4.1 5.5 5.7 6.1 5.2 4.8 4.6 4.0 5.0
6.5 6.1 6.5 6.5 6.5 6.5 6.5 6.5 6.5 6.5 6.5 6.5 6.5 6.5 6.5 6.5 6.5 6.5 6.6 6.8 6.8 6.0 4.9 4.3 4.7 5.2 3.4 3.0 2.5 3.1 3.8 3.4 3.1 3.4 3.7 3.7 4.2 5.4 4.6 3.6 4.1 4.5 4.7 4.4
6.5 6.5 6.5 6.5 6.5 6.5 6.5 6.5 6.5 6.5 6.5 6.5 6.5 6.5 6.5 6.5 6.5 6.5 6.5 6.8 7.0 7.1 6.3 5.4 5.6 4.0 4.3 2.8 2.0 2.2 3.1 4.1 4.0 3.4 3.4 3.9 4.4 5.2 5.0 4.6 4.7 5.0 4.9 5.1
6.5 6.5 6.5 6.5 6.5 6.5 6.5 6.5 6.5 6.5 6.5 6.5 6.5 6.5 6.5 6.5 6.5 6.6 7.0 7.1 7.4 7.4 7.1 7.8 7.7 6.8 4.5 4.2 2.9 1.9 2.1 3.5 5.5 4.2 4.0 4.1 3.8 4.9 5.7 5.1 5.3 5.6 5.7 5.0
6.5 6.5 6.5 6.5 6.5 6.5 6.5 6.5 6.5 6.5 6.5 6.5 6.5 6.5 6.5 6.5 6.5 6.6 6.9 7.5 7.5 7.5 7.5 7.4 7.8 7.8 5.7 3.8 3.2 2.9 1.6 1.3 3.8 5.6 4.7 4.2 4.1 4.3 4.9 5.4 5.9 5.8 5.9 5.6
6.5 6.5 6.5 6.5 6.5 6.4 6.5 6.5 6.5 6.5 6.5 6.5 6.5 6.5 6.5 6.5 6.5 6.5 6.7 6.9 7.2 7.4 7.6 7.0 7.5 7.4 6.6 4.6 4.1 3.9 3.3 1.8 1.3 4.5 4.5 4.5 4.1 4.1 4.8 5.5 5.5 5.4 5.1 4.9
6.5 6.5 6.5 6.5 6.5 6.5 6.5 6.5 6.5 6.5 6.5 6.5 6.5 6.5 6.5 6.5 6.5 6.5 6.7 7.1 7.0 7.1 7.2 6.9 7.2 6.1 6.0 4.9 4.8 4.8 3.6 1.9 1.2 3.7 4.8 4.2 5.1 4.5 4.8 5.6 5.6 5.2 4.4 4.6
6.5 6.5 6.5 6.5 6.5 6.5 6.5 6.5 6.5 6.5 6.5 6.5 6.5 6.5 6.5 6.5 6.9 7.0 6.8 7.0 6.9 6.7 6.6 6.7 6.9 6.4 5.0 4.2 3.6 3.9 2.9 2.3 1.8 1.3 4.1 3.6 3.7 4.8 5.7 5.9 5.9 5.3 5.1 5.1
6.5 6.5 6.5 6.5 6.5 6.5 6.5 6.5 6.5 6.5 6.5 6.5 6.5 6.5 6.6 6.7 6.6 6.7 6.7 6.6 6.5 6.5 6.1 5.8 5.6 5.3 4.8 4.2 4.9 3.5 2.0 1.6 1.8 0.8 -0.6 0.0 0.7 1.7 1.5 1.3 0.9 2.1 3.5 4.8
6.3 6.5 6.5 6.5 6.5 6.5 6.5 6.5 6.5 6.5 6.5 6.5 6.5 6.5 6.5 6.5 6.5 6.6 6.5 6.5 5.7 5.6 5.5 5.1 4.8 4.1 4.4 4.3 4.7 3.7 2.2 1.8 1.3 0.2 -0.3 -0.7 -0.8 -0.0 0.3 0.4 -0.0 -0.3 0.2 0.4
6.5 6.5 6.5 6.5 6.5 6.5 6.5 6.5 6.5 6.5 6.5 6.5 6.5 6.5 6.5 6.5 6.5 6.7 5.9 5.9 5.4 5.6 5.0 4.6 4.1 3.6 3.6 3.7 3.6 3.4 3.3 1.6 1.3 0.0 -0.9 -0.9 -0.5 -0.3 0.2 -0.9 -0.5 -0.9 -1.0 -0.9
6.4 6.5 6.5 6.5 6.5 6.5 6.5 6.5 6.5 6.5 6.5 6.5 6.5 6.5 6.5 6.2 6.0 6.0 5.2 5.6 5.4 5.5 4.8 4.8 3.8 3.3 2.8 2.9 3.6 3.6 2.3 1.9 1.3 1.1 -0.2 0.2 -0.2 -0.2 0.0 -0.4 -0.2 -0.8 -0.4 -0.8
6.5 6.5 6.5 6.5 6.5 6.5 6.5 6.5 6.5 6.5 6.5 6.5 6.5 6.5 6.6 6.5 6.4 5.6 5.0 5.4 5.1 5.5 5.0 4.6 4.1 3.7 2.8 2.6 2.5 2.8 2.3 0.9 0.7 -0.4 -0.1 -0.3 -0.7 -0.6 -1.0 -1.4 -0.6 -2.0 -1.6 -1.2
6.5 6.5 6.5 6.5 6.5 6.5 6.5 6.5 6.5 6.5 6.5 6.5 6.5 6.5 6.7 6.6 6.3 6.1 5.7 5.3 5.0 4.4 4.4 4.1 4.0 3.7 3.4 2.9 2.0 1.9 1.3 0.1 -0.3 -0.5 -1.5 -1.7 -1.2 -1.6 -0.9 -1.2 -1.7 -1.8 -1.8 -2.0
6.1 6.5 6.5 6.5 6.5 6.5 6.5 6.5 6.5 6.5 6.5 6.5 6.5 6.4 6.6 6.2 6.5 6.2 5.0 4.5 4.0 3.3 3.2 3.1 2.9 2.8 2.5 2.0 1.8 1.6 1.5 0.8 -0.1 -1.0 -1.3 -1.7 -1.3 -2.0 -1.4 -2.4 -2.1 -1.8 -1.7 -1.9
6.5 6.5 6.5 6.5 6.5 6.5 6.5 6.5 5.8 6.2 6.5 6.2 6.0 5.8 5.7 5.9 6.5 6.4 3.7 3.5 2.9 2.6 1.7 1.4 1.5 1.0 0.1 -0.6 -0.6 -0.1 -0.6 -1.0 -1.2 -1.0 -1.1 -1.3 -1.4 -1.4 -1.0 -1.4 -1.7 -1.1 -0.7 -0.8
6.5 6.5 6.5 6.5 6.5 6.5 6.5 5.6 5.3 6.5 6.5 5.7 4.8 4.4 4.7 6.2 4.1 3.2 2.8 3.0 2.8 2.1 1.5 0.7 0.2 -0.5 -1.6 -1.5 -1.3 -1.0 -1.6 -2.2 -2.0 -2.0 -1.6 -2.1 -2.3 -1.7 -0.9 -0.7 -1.1 -0.8 -0.8 -1.1
6.5 6.5 6.5 6.5 6.5 6.5 4.9 6.1 6.5 5.8 4.2 3.0 3.3 3.5 4.0 3.7 2.7 2.4 2.4 2.2 2.0 1.6 1.0 -0.0 -0.7 -1.4 -2.7 -2.5 -1.9 -1.8 -2.4 -2.7 -2.7 -2.4 -2.2 -2.5 -2.5 -2.0 -1.6 -0.8 -0.8 -1.1 -1.4 -1.2
6.5 6.5 6.5 6.5 6.5 5.6 4.8 4.2 2.5 2.6 2.6 3.3 2.9 3.2 3.1 2.8 2.4 2.4 2.5 1.8 1.4 1.0 0.2 -1.0 -2.5 -2.9 -3.7 -4.6 -4.0 -3.2 -4.1 -4.0 -3.4 -3.1 -3.0 -2.4 -2.3 -1.4 -1.1 -0.4 -0.3 -0.5 -1.1 -1.3
6.5 5.0 6.5 6.5 6.3 5.6 3.4 2.6 2.6 2.1 2.4 2.4 2.2 2.1 1.9 2.4 2.1 2.3 2.1 1.5 0.8 -1.2 -2.8 -3.9 -2.1 -4.2 -5.1 -6.1 -5.6 -6.6 -5.6 -5.3 -3.8 -3.4 -3.1 -2.4 -0.6 -0.5 -0.7 -0.3 0.2 -0.4 -0.7 -0.4
4.9 5.5 6.5 6.5 5.4 3.3 3.0 1.4 2.5 1.6 2.0 2.1 1.9 1.6 1.4 1.7 1.7 1.5 1.2 0.8 0.1 -2.0 -4.4 -2.6 -1.8 -6.1 -6.6 -9.1 -8.5 -9.4 -7.8 -7.3 -4.7 -4.8 -3.3 -1.9 -0.9 -0.4 -0.5 -0.7 0.6 1.2 1.1 1.2
4.5 6.5 6.5 6.5 2.3 3.2 2.6 -0.7 -1.0 1.4 1.3 0.6 1.0 1.4 1.2 1.0 1.3 -0.5 -1.3 -2.2 -2.6 -3.3 -6.0 -5.1 -2.7 -7.3 -7.9 -9.4 -9.5 -9.8 -10.9 -9.9 -8.1 -4.9 -2.4 -1.5 -0.8 -0.2 0.2 0.8 -1.2 1.6 2.1 1.3
Wind_Speed
4 7 6 6 3 1 0 2 4 5 4 5 4 9 13 14 11 8 6 4 6 7 7 7 8 7 6 10 12 15 14 13 11 9 10 9 10 7 7 13 17 22 20 21
6 6 5 4 1 3 3 4 5 7 6 5 7 11 9 9 10 10 5 5 4 6 6 8 7 6 8 11 14 12 15 13 13 11 9 8 7 5 8 12 15 19 17 18
4 5 3 4 4 6 2 3 4 4 8 2 11 4 7 5 9 17 11 9 10 8 11 6 8 7 7 8 12 13 15 14 13 12 7 2 4 2 5 6 7 13 19 21
2 4 6 3 5 8 4 5 5 6 6 3 2 3 5 7 12 17 16 15 14 16 16 14 15 14 7 8 8 11 12 11 12 10 10 13 10 10 8 8 7 9 19 20
2 4 6 4 3 5 2 6 5 1 2 3 4 3 5 7 9 16 16 17 16 15 15 14 13 13 13 11 7 9 9 9 11 12 13 12 11 10 8 6 10 11 11 19
3 4 2 2 4 2 6 5 4 3 3 3 3 3 4 4 5 9 15 16 16 17 16 15 13 12 14 15 13 9 8 12 13 13 15 15 15 11 8 8 8 9 9 9
6 3 2 2 4 4 10 5 3 5 4 3 1 2 0 2 3 6 12 16 17 14 15 17 16 15 12 13 16 12 12 10 12 14 15 15 16 15 14 13 11 11 11 10
5 6 6 5 3 3 5 4 2 1 3 4 3 3 4 0 2 7 10 12 14 16 15 15 16 15 13 11 12 14 13 12 11 13 16 16 17 11 12 12 11 11 11 11
3 4 4 4 2 2 4 3 2 0 1 1 3 1 3 15 9 15 21 18 18 19 16 17 17 16 14 13 12 13 14 13 13 14 15 16 15 15 13 14 11 9 11 9
2 3 2 5 2 3 1 4 1 2 3 4 4 3 5 17 20 18 19 17 16 16 17 15 14 15 13 13 13 12 12 15 16 16 15 13 14 14 13 11 13 12 10 11
0 3 6 2 4 3 2 2 2 2 2 2 2 2 5 9 12 14 16 17 18 16 16 14 13 13 13 12 13 13 12 13 12 9 12 12 11 12 11 11 12 13 11 12
0 1 2 6 5 2 1 2 3 1 3 2 2 1 5 6 9 8 11 12 12 11 13 12 12 12 13 14 14 14 13 12 9 9 3 3 3 5 10 10 11 10 13 11
2 1 3 6 4 4 2 1 1 2 2 3 2 3 4 5 6 7 9 10 9 11 11 11 12 14 15 15 14 13 13 13 10 11 11 11 10 8 8 8 11 8 5 10
4 1 5 5 5 1 4 2 1 2 1 3 2 3 8 7 8 8 9 10 9 10 12 13 13 14 16 15 14 13 13 12 12 13 14 14 12 10 9 8 9 11 9 10
2 2 1 7 9 6 11 9 5 3 4 3 3 2 1 3 5 6 7 7 8 11 14 14 15 14 14 16 15 13 11 13 13 13 15 13 11 11 10 11 10 9 10 10
1 2 3 4 3 5 6 7 7 3 4 4 4 3 6 6 5 4 5 7 8 10 11 12 15 16 16 15 13 13 13 12 12 13 15 12 12 11 10 10 9 10 9 10
2 2 2 4 4 7 4 5 7 4 4 2 5 7 5 4 4 3 4 5 7 9 10 12 11 11 12 13 14 13 11 10 10 13 13 12 11 11 11 11 9 10 10 8
3 3 1 3 4 3 5 2 4 4 5 7 6 4 8 7 3 1 0 1 4 5 7 7 8 9 9 11 13 13 12 12 11 11 11 12 11 10 8 9 10 11 9 10
3 3 1 1 2 6 2 5 7 6 5 11 10 8 10 7 3 5 4 3 3 1 3 4 5 6 7 7 9 8 10 11 12 13 12 12 9 10 9 12 10 9 10 11
2 4 2 1 2 5 5 4 4 4 4 13 12 9 7 4 2 4 6 4 4 2 2 4 5 5 6 9 9 7 8 8 10 9 9 8 8 9 9 10 11 10 9 9
4 3 4 2 3 7 5 6 5 4 5 10 13 8 8 5 5 3 5 3 3 2 3 3 4 4 5 7 7 7 7 10 9 8 8 9 9 9 10 11 10 10 9 9
7 8 4 4 1 7 7 4 7 5 2 8 8 8 7 6 5 6 6 5 4 4 2 2 2 3 5 7 6 7 9 8 7 7 7 8 8 7 7 7 7 7 7 8
3 7 5 9 6 3 15 5 7 6 5 6 7 6 7 7 6 6 5 6 5 5 3 1 1 3 4 6 6 6 8 7 7 7 7 8 7 7 6 7 9 8 8 8
5 5 3 3 5 11 11 9 4 7 7 6 6 7 8 7 7 6 4 5 5 4 3 2 1 3 4 5 6 4 5 6 5 5 5 5 9 7 6 5 6 7 8 8
5 6 6 6 7 4 10 11 11 8 6 6 5 8 9 8 7 7 6 6 6 4 3 5 4 2 1 3 4 5 5 5 4 4 5 6 5 6 5 5 5 6 7 8
6 8 6 8 9 7 6 10 13 14 13 11 10 7 6 8 8 5 5 4 4 5 3 4 5 3 3 2 3 4 4 4 3 3 4 4 4 4 4 4 3 10 9 14
Wind_Direction
9 67 38 355 46 142 244 311 294 269 304 320 336 307 294 293 302 286 288 292 299 311 294 254 222 225 219 210 195 194 184 184 170 174 186 183 192 183 186 192 187 185 188 180
36 57 340 327 340 17 356 329 317 296 1 352 347 294 293 292 271 271 256 280 301 306 322 310 277 202 185 197 205 199 200 190 190 184 186 195 183 187 186 184 190 191 189 182
85 32 30 32 354 360 318 6 346 307 336 62 350 307 341 330 16 38 25 7 10 356 347 338 301 243 205 200 204 198 205 204 197 193 169 115 112 80 165 195 190 193 190 195
24 6 31 349 50 5 326 341 323 340 21 328 54 262 337 348 27 30 18 17 9 6 8 14 8 345 301 229 215 221 203 198 201 187 184 179 197 195 192 192 197 194 197 201
273 9 10 18 356 334 299 292 287 259 286 48 333 74 290 7 12 359 357 359 2 2 6 2 0 345 349 344 282 213 207 216 204 198 195 197 202 205 202 192 193 200 197 202
262 296 345 310 318 1 309 347 350 32 48 36 265 121 353 22 335 335 346 354 352 351 350 346 352 353 353 350 357 321 261 209 199 199 201 199 203 199 194 186 192 199 207 206
341 342 324 13 1 5 24 33 354 8 17 194 76 39 262 81 15 4 339 338 342 348 346 342 347 347 349 344 336 336 327 251 221 201 207 206 209 200 204 203 202 208 208 204
32 342 359 346 61 338 349 1 77 318 356 288 283 235 135 272 82 3 343 335 340 340 341 337 336 336 334 333 327 322 326 319 253 221 205 211 213 212 213 207 212 218 212 210
15 288 303 54 10 41 345 52 -0 137 53 346 279 -0 263 354 0 360 2 349 341 340 338 337 333 326 329 327 327 313 310 301 290 230 222 212 214 213 215 213 212 215 216 215
245 344 278 305 67 33 107 323 51 17 32 317 298 337 330 350 347 345 345 344 344 343 340 337 332 333 330 327 326 322 309 299 283 237 220 218 212 212 218 214 217 219 222 222
108 108 291 9 27 11 352 35 278 284 189 191 301 304 9 345 331 332 343 346 348 344 344 337 335 336 336 334 341 335 334 323 320 243 213 211 212 215 215 220 217 217 219 213
288 133 274 231 277 313 190 125 355 345 326 233 166 270 352 342 331 340 343 352 342 336 336 330 338 350 352 351 354 344 348 345 339 7 97 85 10 231 212 217 223 221 224 218
192 24 355 351 1 357 99 158 103 241 234 236 205 280 359 4 359 1 345 337 331 330 338 342 354 6 2 359 352 355 2 354 356 48 52 56 50 34 39 50 51 20 316 228
109 177 163 199 214 136 282 242 149 223 154 295 257 308 10 16 8 353 347 344 340 344 352 358 3 9 2 357 353 1 9 7 10 47 52 48 36 34 36 37 48 54 27 27
103 197 144 261 270 270 262 265 236 206 250 194 247 194 1 305 319 309 304 326 344 354 358 359 2 4 2 357 354 357 7 20 19 39 46 38 33 28 24 43 33 41 45 34
332 256 64 300 343 334 289 260 243 206 231 261 182 235 218 251 272 305 314 343 358 354 353 357 5 358 359 354 347 354 8 17 23 37 42 26 31 25 10 34 30 39 36 31
208 91 44 273 331 307 328 235 197 182 205 204 208 221 190 257 265 292 328 348 348 349 359 0 1 350 344 344 345 358 357 18 28 36 34 29 27 22 12 26 11 35 31 30
176 122 114 262 2 13 237 157 172 164 207 216 247 257 224 245 252 187 335 269 326 339 354 355 353 347 344 338 345 347 1 17 26 29 31 33 14 26 8 23 24 23 22 23
212 123 301 118 226 285 317 200 188 190 257 188 214 224 236 247 261 257 191 205 209 215 322 337 341 345 333 343 339 346 357 12 20 24 20 21 5 21 16 33 25 24 29 27
140 83 133 78 163 221 240 175 177 163 282 184 187 201 226 178 194 246 197 185 191 158 59 18 355 349 346 338 335 5 20 23 25 10 13 19 21 33 26 30 32 28 29 25
158 169 202 235 229 284 228 155 164 88 242 173 186 191 192 198 205 170 150 179 175 141 79 64 38 3 339 334 337 17 17 21 355 356 9 25 24 29 32 33 31 29 24 17
169 153 196 184 143 288 149 82 177 206 117 172 184 189 192 206 172 177 185 166 176 172 145 71 65 19 357 352 351 16 28 346 346 350 16 22 16 21 15 25 17 19 21 22
238 190 177 194 213 240 191 182 201 169 154 182 177 193 190 184 199 190 190 173 185 182 177 112 80 17 13 359 4 11 350 349 356 5 11 17 11 19 13 31 34 33 28 23
238 176 212 57 246 223 211 231 219 188 187 177 182 179 172 189 190 201 189 180 179 172 181 142 130 18 4 358 5 352 334 340 351 0 14 19 42 35 22 25 36 37 29 21
198 130 181 264 274 311 251 231 209 204 191 171 179 185 192 180 194 189 196 196 196 175 153 177 183 173 282 320 337 325 335 343 2 11 21 30 23 25 18 19 29 48 43 34
190 184 178 217 206 179 231 212 192 187 196 191 170 176 189 185 195 173 191 183 169 182 158 163 184 172 237 282 296 313 332 349 20 64 65 65 65 49 28 30 355 24 44 43